Tampa, FL

1:19 AM EDT on September 29, 2016 (GMT -0400)
Knight

Weather History for KTPF - July, 2013

Change the Weather History Date:

Wednesday, July 31, 2013

  Actual Average (KTPA) Record (KTPA)
Temperature  
Mean Temperature 82 °F 83 °F  
Max Temperature 91 °F 90 °F 96 °F (1958)
Min Temperature 73 °F 76 °F 70 °F (1947)
Degree Days  
Heating Degree Days 0 0  
Month to date heating degree days 0  
Since 1 June heating degree days 0  
Since 1 July heating degree days 0  
Cooling Degree Days 17 18  
Month to date cooling degree days 558  
Year to date cooling degree days 1951  
Since 1 June cooling degree days 1074  
Growing Degree Days 32 (Base 50)    
Moisture  
Dew Point 71 °F    
Average Humidity 73    
Maximum Humidity 94    
Minimum Humidity 46    
Precipitation  
Precipitation 0.16 in 0.22 in 3.31 in (2007)
Month to date precipitation 7.07  
Year to date precipitation 25.95  
Sea Level Pressure  
Sea Level Pressure 30.09 in    
Wind  
Wind Speed 5 mph (ENE)    
Max Wind Speed 13 mph    
Max Gust Speed 23 mph    
Visibility 10 miles    
Events Rain    
T = Trace of Precipitation, MM = Missing Value Source: NWS Daily Summary

Daily Weather History Graph

Daily Weather History Graph

Search for Another Location

Airport or City:

Trip Planner

Search our weather history database for the weather conditions in past years. The results will help you decide how hot, cold, wet, or windy it might be!

Date:

Astronomy

Jul. 31, 2013 Rise Set
Actual Time 6:52 AM EDT 8:19 PM EDT
Civil Twilight 6:26 AM EDT 8:45 PM EDT
Nautical Twilight 5:56 AM EDT 9:15 PM EDT
Astronomical Twilight 5:24 AM EDT 9:46 PM EDT
Moon 1:46 AM EDT (7/31) 3:33 PM EDT (7/31)
Length of Visible Light 14h 18m
Length of Day
13h 27m
Waning Crescent, 32% of the Moon is Illuminated
Jul 31
Waning Crescent
Aug 6
New
Aug 14
First Quarter
Aug 20
Full
Aug 28
Last Quarter

Hourly Weather History & Observations

Time (EDT) Temp. Heat Index Dew Point Humidity Pressure Visibility Wind Dir Wind Speed Gust Speed Precip Events Conditions
12:15 AM 78.8 °F - 73.4 °F 83% 30.15 in 10.0 mi NE 4.6 mph - N/A   Clear
12:35 AM 77.0 °F - 71.6 °F 83% 30.15 in 10.0 mi NNE 3.5 mph - N/A   Clear
12:55 AM 77.0 °F - 73.4 °F 89% 30.14 in 10.0 mi East 4.6 mph - N/A   Clear
1:15 AM 77.0 °F - 71.6 °F 83% 30.14 in 10.0 mi ENE 4.6 mph - N/A   Clear
1:35 AM 77.0 °F - 71.6 °F 83% 30.13 in 10.0 mi NE 5.8 mph - N/A   Clear
1:55 AM 77.0 °F - 71.6 °F 83% 30.11 in 10.0 mi NE 5.8 mph - N/A   Clear
2:15 AM 77.0 °F - 71.6 °F 83% 30.11 in 10.0 mi NE 4.6 mph - N/A   Clear
2:55 AM 77.0 °F - 71.6 °F 83% 30.08 in 10.0 mi NE 4.6 mph - N/A   Clear
3:15 AM 77.0 °F - 71.6 °F 83% 30.08 in 10.0 mi NE 5.8 mph - N/A   Clear
3:35 AM 77.0 °F - 71.6 °F 83% 30.08 in 10.0 mi NNE 3.5 mph - N/A   Clear
3:55 AM 77.0 °F - 71.6 °F 83% 30.08 in 10.0 mi NNE 3.5 mph - N/A   Clear
4:15 AM 77.0 °F - 69.8 °F 78% 30.08 in 10.0 mi NNE 4.6 mph - N/A   Clear
4:35 AM 77.0 °F - 69.8 °F 78% 30.08 in 10.0 mi NE 6.9 mph - N/A   Clear
4:55 AM 77.0 °F - 69.8 °F 78% 30.09 in 10.0 mi NE 3.5 mph - N/A   Clear
5:15 AM 75.2 °F - 69.8 °F 83% 30.09 in 10.0 mi NE 4.6 mph - N/A   Clear
5:35 AM 75.2 °F - 69.8 °F 83% 30.09 in 10.0 mi NE 4.6 mph - N/A   Clear
5:55 AM 75.2 °F - 71.6 °F 89% 30.09 in 10.0 mi NE 5.8 mph - N/A   Scattered Clouds
6:15 AM 77.0 °F - 71.6 °F 83% 30.10 in 10.0 mi ENE 4.6 mph - N/A   Scattered Clouds
6:35 AM 77.0 °F - 71.6 °F 83% 30.10 in 10.0 mi East 5.8 mph - N/A   Clear
6:55 AM 77.0 °F - 71.6 °F 83% 30.11 in 10.0 mi ENE 5.8 mph - N/A   Clear
7:15 AM 77.0 °F - 71.6 °F 83% 30.11 in 10.0 mi East 5.8 mph - N/A   Clear
7:35 AM 77.0 °F - 71.6 °F 83% 30.11 in 10.0 mi ENE 4.6 mph - N/A   Clear
7:55 AM 78.8 °F - 73.4 °F 83% 30.11 in 10.0 mi East 5.8 mph - N/A   Clear
8:15 AM 78.8 °F - 73.4 °F 83% 30.12 in 10.0 mi East 4.6 mph - N/A   Clear
8:35 AM 80.6 °F 85.4 °F 73.4 °F 79% 30.12 in 10.0 mi East 5.8 mph - N/A   Clear
8:55 AM 80.6 °F 85.4 °F 73.4 °F 79% 30.13 in 10.0 mi ESE 6.9 mph - N/A   Clear
9:15 AM 82.4 °F 88.2 °F 73.4 °F 74% 30.13 in 10.0 mi SE 5.8 mph - N/A   Clear
9:35 AM 82.4 °F 88.2 °F 73.4 °F 74% 30.13 in 10.0 mi SE 4.6 mph - N/A   Clear
9:55 AM 84.2 °F 90.9 °F 73.4 °F 70% 30.13 in 10.0 mi East 4.6 mph - N/A   Clear
10:15 AM 86.0 °F 93.4 °F 73.4 °F 66% 30.14 in 10.0 mi ESE 5.8 mph - N/A   Clear
10:35 AM 86.0 °F 93.4 °F 73.4 °F 66% 30.13 in 10.0 mi East 3.5 mph - N/A   Clear
10:55 AM 87.8 °F 93.8 °F 71.6 °F 58% 30.13 in 10.0 mi East 6.9 mph - N/A   Clear
11:15 AM 87.8 °F 93.8 °F 71.6 °F 58% 30.13 in 10.0 mi East 5.8 mph - N/A   Clear
11:35 AM 87.8 °F 92.6 °F 69.8 °F 55% 30.13 in 10.0 mi Calm Calm - N/A   Clear
11:55 AM 87.8 °F 92.6 °F 69.8 °F 55% 30.13 in 10.0 mi East 3.5 mph - N/A   Scattered Clouds
12:15 PM 89.6 °F 93.4 °F 68.0 °F 49% 30.13 in 10.0 mi Calm Calm - N/A   Scattered Clouds
12:35 PM 89.6 °F 94.7 °F 69.8 °F 52% 30.12 in 10.0 mi Calm Calm - N/A   Scattered Clouds
12:55 PM 87.8 °F 92.6 °F 69.8 °F 55% 30.11 in 10.0 mi South 4.6 mph - N/A   Scattered Clouds
1:15 PM 89.6 °F 94.7 °F 69.8 °F 52% 30.10 in 10.0 mi Calm Calm - N/A   Scattered Clouds
1:35 PM 89.6 °F 94.7 °F 69.8 °F 52% 30.10 in 10.0 mi South 3.5 mph - N/A   Scattered Clouds
1:55 PM 89.6 °F 96.2 °F 71.6 °F 55% 30.09 in 10.0 mi SSW 3.5 mph - N/A   Mostly Cloudy
2:15 PM 87.8 °F 92.6 °F 69.8 °F 55% 30.08 in 10.0 mi South 4.6 mph - N/A   Overcast
2:35 PM 89.6 °F 94.7 °F 69.8 °F 52% 30.07 in 10.0 mi Calm Calm - N/A   Scattered Clouds
2:55 PM 89.6 °F 94.7 °F 69.8 °F 52% 30.06 in 10.0 mi South 3.5 mph - N/A   Scattered Clouds
3:15 PM 89.6 °F 94.7 °F 69.8 °F 52% 30.04 in 10.0 mi SSW 4.6 mph - N/A   Scattered Clouds
3:35 PM 91.4 °F 96.8 °F 69.8 °F 49% 30.04 in 10.0 mi SW 3.5 mph - N/A   Clear
3:55 PM 91.4 °F 96.8 °F 69.8 °F 49% 30.04 in 10.0 mi SW 5.8 mph - N/A   Clear
4:15 PM 91.4 °F 96.8 °F 69.8 °F 49% 30.03 in 10.0 mi SSW 4.6 mph - N/A   Clear
4:55 PM 91.4 °F 95.4 °F 68.0 °F 46% 30.02 in 10.0 mi Calm Calm - N/A   Clear
5:15 PM 91.4 °F 95.4 °F 68.0 °F 46% 30.01 in 10.0 mi SSE 3.5 mph - N/A   Clear
6:15 PM 87.8 °F 95.6 °F 73.4 °F 62% 30.02 in 10.0 mi WNW 4.6 mph - N/A   Scattered Clouds
6:55 PM 78.8 °F - 69.8 °F 74% 30.05 in 5.0 mi East 11.5 mph 23.0 mph N/A Rain Light Rain
7:15 PM 77.0 °F - 68.0 °F 74% 30.03 in 3.0 mi SSW 12.7 mph 19.6 mph 0.08 in Rain Heavy Rain
7:35 PM 73.4 °F - 69.8 °F 88% 30.04 in 4.0 mi North 8.1 mph - 0.15 in Rain Rain
7:55 PM 73.4 °F - 69.8 °F 88% 30.04 in 10.0 mi North 5.8 mph - 0.16 in Rain Light Rain
8:15 PM 73.4 °F - 69.8 °F 88% 30.04 in 10.0 mi North 3.5 mph - N/A Rain Light Rain
8:35 PM 73.4 °F - 68.0 °F 83% 30.05 in 10.0 mi NNE 8.1 mph - N/A   Clear
8:55 PM 73.4 °F - 69.8 °F 88% 30.05 in 10.0 mi NE 5.8 mph - N/A   Scattered Clouds
9:15 PM 75.2 °F - 69.8 °F 83% 30.06 in 10.0 mi East 8.1 mph - N/A   Scattered Clouds
9:35 PM 75.2 °F - 71.6 °F 89% 30.06 in 10.0 mi ENE 6.9 mph - N/A Rain Light Rain
9:55 PM 75.2 °F - 71.6 °F 89% 30.07 in 10.0 mi NE 6.9 mph - N/A   Clear
10:15 PM 75.2 °F - 69.8 °F 83% 30.08 in 10.0 mi NE 4.6 mph - N/A   Clear
10:35 PM 75.2 °F - 69.8 °F 83% 30.08 in 10.0 mi Calm Calm - N/A   Clear
10:55 PM 75.2 °F - 71.6 °F 89% 30.08 in 10.0 mi Calm Calm - N/A   Clear
11:15 PM 73.4 °F - 71.6 °F 94% 30.08 in 10.0 mi Calm Calm - N/A   Clear
11:35 PM 75.2 °F - 71.6 °F 89% 30.08 in 10.0 mi NE 4.6 mph - N/A   Clear
11:55 PM 75.2 °F - 71.6 °F 89% 30.08 in 10.0 mi ENE 5.8 mph - N/A   Clear